Other Public Products
Issued by NWS Charleston, SC

Current Version | Previous Version | Graphics & Text | Print | Product List | Glossary On
Versions: 1 2 3 4 5 6 7 8 9 10 11 12 13 14 15 16 17 18 19 20 21 22 23 24 25 26 27 28 29 30 31 32 33 34 35 36 37 38 39 40 41 42 43 44 45 46 47 48 49 50
736
FPUS82 KCHS 240827
OPUCHS

TEST...KCHS/KSAV Gateway Observations...TEST
National Weather Service Charleston SC
400 AM EDT TUE APR 24 2018

NOTE: "fair" indicates few or no clouds below 12,000 feet with no
significant weather and/or obstructions to visibility.

SCZ050-WAZ558-NCZ071-TXZ119-213-PAZ071-DCZ001-FLZ074-172-MI076-
NYZ176-178-MAZ016-IL014-TNZ027-NJZ106-GAZ044-MD014-240900-

...Gateway Observations for Charleston International...

CITY           SKY/WX    TMP DP  RH WIND       PRES   REMARKS
Chas Airport   CLOUDY    68  67  96 E5        29.87F FOG
Seattle        CLEAR     57  34  41 NE12      30.23S
Charlotte      CLOUDY    58  57  97 E12       29.95S FOG
Dallas DFW     CLEAR     59  52  77 CALM      30.01F
Dallas Love    CLEAR     60  53  77 CALM      30.02F
Philladelphia  FAIR      42  34  73 E6        30.38F
Wash National  CLOUDY    56  38  50 E8        30.31F
Baltimore      MOCLDY    50  37  61 E7        30.33S
Miami          FAIR      73  73 100 CALM      29.96S
Detroit        CLOUDY    55  44  66 NE3       30.14S
Newark         FAIR      47  40  76 CALM      30.40S
Laguardia      FAIR      48  42  80 SE5       30.40S
J F K          MOCLDY    43  42  97 SE3       30.42R
Boston Logan   FAIR      43  30  60 SW7       30.41S
Ft. Lauderdale FAIR      75  75 100 SW6       29.95S
Chicago O`Hare CLOUDY    49  34  56 N3        30.05F
Chicago Midway DRIZZLE   52  36  54 N5        30.06S
Houston Bush   FAIR      60  56  86 CALM      30.04S
Houston Hobby  FAIR      60  57  89 W3        30.03S
Nashville      CLOUDY    57  55  93 NE5       29.88F
Atlanta        FOG       60  60 100 SW5       29.83S VSB 1

$$

GAZ044-118-TXZ119-213-NCZ071-DCZ001-MDZ014-506-PAZ021-071-NJZ106-
NYZ176-178-MAZ106-OHZ011-021-055-MIZ076-KYZ091-ILZ014-INZ047-
MNZ060-ONZ431-240900-

...Gateway Observations for Savannah International...

CITY           SKY/WX    TMP DP  RH WIND       PRES   REMARKS
Savannah Arpt  FAIR      66  65  96 S8        29.86F
Atlanta        FOG       60  60 100 SW5       29.83S VSB 1
Charlotte      CLOUDY    58  57  97 E12       29.95S FOG
Dallas DFW     CLEAR     59  52  77 CALM      30.01F
Houston Bush   FAIR      60  56  86 CALM      30.04S
Wash National  CLOUDY    56  38  50 E8        30.31F
Wash Dulles    CLOUDY    54  37  52 SE9       30.30F
Baltimore      MOCLDY    50  37  61 E7        30.33S
Philadelphia   FAIR      42  34  73 E6        30.38F
Newark         FAIR      47  40  76 CALM      30.40S
Laguardia      FAIR      48  42  80 SE5       30.40S
J F K          MOCLDY    43  42  97 SE3       30.42R
Boston         FAIR      43  30  60 SW7       30.41S
Pittsburg      CLOUDY    53  46  77 SE9       30.17S
Akron          CLOUDY    56  41  57 E10       30.14F
Cleveland      CLOUDY    57  43  59 E8        30.16F
Cincinnati     LGT RAIN  52  49  89 NE9       29.98F
Columbus       CLOUDY    52  49  91 E9        30.05S
Detroit        CLOUDY    55  44  66 NE3       30.14S
Chicago O`Hare CLOUDY    49  34  56 N3        30.05F
Minneapolis    FAIR      49  40  71 CALM      30.13S
Indianapolis   CLOUDY    52  50  93 E9        29.98F
Toronto Canada MOCLDY    46  27  46 SE2       30.17S

$$




USA.gov is the U.S. government's official web portal to all federal, state and local government web resources and services.